Regional Weather Roundup
Issued by NWS Columbia, SC

Home | Current Version | Previous Version | Text Only | Print | Product List | Glossary On
Versions: 1 2 3 4 5 6 7 8 9 10 11 12 13 14 15 16 17 18 19 20 21 22 23 24 25 26 27 28 29 30 31 32 33 34 35 36 37 38 39 40 41 42 43 44 45 46 47 48 49 50
000
ASUS42 KCAE 220410
RWRCAE
REGIONAL WEATHER ROUNDUP
NATIONAL WEATHER SERVICE COLUMBIA SC
1200 AM EDT MON SEP 22 2014

NOTE: "FAIR" INDICATES FEW OR NO CLOUDS BELOW 12,000 FEET WITH NO
SIGNIFICANT WEATHER AND/OR OBSTRUCTIONS TO VISIBILITY.

NOT ALL STATIONS ARE QUALITY CONTROLLED BY THE NATIONAL
WEATHER SERVICE. USE DATA WITH CAUTION...ESPECIALLY
DEWPOINT OBSERVATIONS.

SCZ001>056-GAZ040-063>065-077-220500-
...UPSTATE SOUTH CAROLINA...

CITY           SKY/WX    TMP DP  RH WIND       PRES   REMARKS
ANDERSON       CLOUDY    78  64  61 W9        29.94R
LIBERTY        MOCLDY    72  69  90 MISG      29.95S
SPARTANBURG    FAIR      73  66  78 CALM      29.93S
CLEMSON        CLOUDY    76  66  71 NW5       29.96R
GREENVILLE     CLOUDY    75  66  73 SW7       29.94F
GREENWOOD      CLOUDY    76  62  62 SW12      29.94F
GREER          CLOUDY    73  67  81 CALM      29.93S
ROCK HILL      CLOUDY    75  65  70 W6        29.92S
CHESTER        MOCLDY    73  63  68 SW3       29.97R
LAURENS        CLOUDY    73  59  60 NW7       29.95R


...CENTRAL SOUTH CAROLINA...

CITY           SKY/WX    TMP DP  RH WIND       PRES   REMARKS
COLUMBIA APT   CLOUDY    77  62  59 SW7       29.92S
COLUMBIA OWENS CLOUDY    73  66  78 CALM      29.93S
DARLINGTON     CLOUDY    72  64  78 SW7       29.92S
FLORENCE       CLEAR     74  65  73 SW7       29.92R
MCENTIRE ANGB  PTCLDY    73  64  74 S5        29.94S
ORANGEBURG     CLEAR     70  64  81 SW8       29.95F
SUMTER SHAW    CLEAR     75  65  70 SW10      29.91S
NEWBERRY       CLOUDY    73  61  64 SW6       29.95F
AIKEN          FAIR      73  64  73 SW6       29.98S
BARNWELL       FAIR      73  64  73 SW7       29.97S
MANNING        FAIR      77  68  73 SW5       29.94S
CAMDEN         FAIR      73  64  73 S6        29.93S
LANCASTER      FAIR      72  68  88 SW5       29.92S
WINNSBORO      FAIR      73  64  73 SW7       29.93S


...EASTERN AND COASTAL SOUTH CAROLINA...

CITY           SKY/WX    TMP DP  RH WIND       PRES   REMARKS
MYRTLE BEACH   CLEAR     77  64  65 SW10      29.93F
N MYRTLE BCH   CLEAR     78  64  61 SW12      29.92S
CONWAY         FAIR      72  64  78 SW6       29.94S
HARTSVILLE     MOCLDY    73  52  46 CALM      29.93S
FLORENCE       CLEAR     74  65  73 SW7       29.92R
DARLINGTON     CLOUDY    72  64  78 SW7       29.92S
CHARLESTON APT CLEAR     74  68  81 SW8       29.96F
MOUNT PLEASANT FAIR      77  72  83 SW6       29.96F
WALTERBORO     CLEAR     72  64  78 S3        29.97S
BEAUFORT       CLEAR     73  67  81 SE8       29.97F


...EASTERN GEORGIA...

CITY           SKY/WX    TMP DP  RH WIND       PRES   REMARKS
AUGUSTA BUSH F CLEAR     74  62  66 SW5       29.94F
AUGUSTA DANIEL CLEAR     76  62  62 SW3       29.96S
THOMSON        CLEAR     77  68  75 CALM      29.99F
WASHINGTON     FAIR      77  70  78 SW6       29.96S
CLAXTON        FAIR      68  68 100 CALM      29.99S
SYLVANIA       CLEAR     75  69  83 CALM      29.99S
STATESBORO     CLEAR     67  67 100 CALM      29.98S
SAVANNAH       CLEAR     73  64  73 SW6       29.99S


...SOUTHERN NORTH CAROLINA...

CITY           SKY/WX    TMP DP  RH WIND       PRES   REMARKS
CHARLOTTE      CLOUDY    73  65  75 W3        29.91S
MONROE         MOCLDY    72  65  78 SW7       29.90S
WADESBORO      PTCLDY    76  64  68 SW3       29.89R
ROCKINGHAM     CLOUDY    74  65  73 SW7       29.90S
RUTHERFORDTON  CLOUDY    73  64  72 SW7       29.94S
ASHEVILLE      MOCLDY    67  62  84 CALM      30.00S

$$



USA.gov is the U.S. government's official web portal to all federal, state and local government web resources and services.